Temperature
-0 1 0 0 1 1 1 1 1 2 2 2 1 0 1 1 1 2 2 2 2 3 3 3 3 3 4 4 4 4 4 4 4 4 4 4 4 4 4 4 4 4 4 5
-1 0 0 0 0 0 1 1 1 1 1 0 1 1 0 1 1 1 1 1 2 2 2 2 2 2 3 3 3 3 3 3 3 3 3 4 4 4 3 4 4 4 4 4
-1 -1 -0 -0 -1 -0 0 -0 0 1 0 -0 -0 -0 -0 -0 0 0 0 1 1 1 1 1 1 1 2 2 2 2 2 2 3 3 3 3 3 3 3 3 3 3 3 3
-3 -2 0 0 -1 -1 -1 -1 -1 -1 -1 -1 -1 -1 -1 -0 -0 -0 0 0 0 0 1 1 1 1 1 1 1 1 2 2 2 2 2 2 2 2 2 2 2 2 2 2
-3 -3 -2 -1 -1 -2 -2 -1 -2 -2 -1 -1 -1 -1 -1 -1 -1 -1 -0 -0 -0 -0 -0 -0 0 0 0 0 1 1 1 1 1 1 1 1 1 1 1 1 1 1 1 2
-3 -2 -1 -0 -1 -2 -2 -1 -2 -2 -2 -2 -2 -2 -2 -1 -1 -1 -1 -1 -1 -1 -1 -1 -1 -0 -0 -0 -0 -0 0 0 0 1 1 1 1 1 1 1 1 1 1 1
-4 -3 -2 -2 -2 -2 -1 -1 -1 -2 -2 -2 -3 -2 -2 -2 -2 -2 -2 -2 -1 -1 -1 -1 -1 -1 -1 -1 -1 -1 -1 -0 -0 -0 -0 -0 -0 0 0 0 0 0 0 0
-4 -4 -2 -2 -3 -2 -2 -1 -1 -1 -1 -2 -2 -2 -2 -2 -2 -2 -2 -2 -2 -2 -2 -2 -2 -2 -2 -2 -1 -1 -1 -1 -1 -1 -1 -1 -1 -1 -1 -1 -1 -1 -0 -0
-3 -2 -2 -2 -2 -1 -1 -1 -1 -1 -2 -2 -2 -2 -3 -3 -3 -3 -3 -3 -3 -3 -3 -3 -2 -2 -2 -2 -2 -2 -2 -2 -2 -2 -2 -2 -1 -1 -1 -1 -1 -1 -1 -1
-5 -4 -3 -2 -1 -1 -1 -1 -1 -2 -2 -2 -2 -3 -3 -3 -3 -3 -3 -3 -4 -4 -4 -3 -3 -3 -3 -3 -3 -3 -2 -2 -2 -2 -2 -2 -2 -2 -2 -2 -2 -2 -2 -2
-5 -5 -4 -2 -1 -1 -1 -2 -2 -2 -2 -2 -3 -3 -4 -4 -4 -4 -4 -4 -4 -4 -4 -4 -4 -4 -3 -3 -3 -3 -3 -3 -3 -3 -3 -2 -3 -3 -3 -3 -3 -3 -2 -2
-3 -3 -4 -2 -1 -1 -2 -2 -2 -2 -3 -3 -3 -4 -4 -4 -4 -4 -4 -4 -4 -4 -4 -4 -4 -4 -4 -4 -3 -3 -3 -3 -3 -3 -3 -3 -3 -3 -3 -3 -3 -3 -3 -3
-1 -1 -1 -1 -2 -2 -2 -2 -2 -3 -3 -3 -4 -4 -4 -4 -4 -5 -5 -5 -5 -5 -4 -4 -4 -4 -4 -4 -4 -4 -3 -3 -3 -4 -4 -4 -4 -4 -4 -4 -4 -4 -4 -3
-2 -2 -2 -2 -2 -2 -3 -3 -3 -3 -3 -4 -4 -4 -5 -5 -5 -5 -5 -5 -5 -5 -5 -5 -4 -4 -4 -4 -4 -4 -4 -4 -4 -4 -4 -4 -4 -4 -4 -4 -4 -4 -4 -4
-2 -2 -2 -2 -3 -3 -3 -3 -4 -4 -4 -4 -4 -5 -5 -5 -5 -5 -5 -5 -5 -5 -5 -5 -5 -5 -5 -4 -4 -4 -4 -4 -4 -4 -4 -4 -4 -5 -5 -5 -4 -4 -4 -4
-3 -3 -3 -3 -3 -4 -4 -4 -4 -4 -4 -5 -5 -5 -5 -5 -5 -5 -5 -5 -5 -5 -5 -5 -5 -5 -5 -5 -5 -5 -5 -4 -4 -5 -5 -5 -5 -5 -5 -5 -5 -5 -4 -4
-4 -4 -4 -4 -4 -4 -4 -4 -4 -5 -5 -5 -5 -5 -6 -6 -6 -6 -6 -6 -5 -5 -6 -5 -5 -5 -5 -5 -5 -5 -5 -5 -5 -5 -5 -5 -5 -5 -5 -5 -5 -5 -5 -5
-3 -3 -3 -3 -4 -4 -4 -5 -5 -5 -5 -5 -6 -6 -6 -6 -6 -6 -6 -6 -6 -6 -6 -6 -6 -6 -6 -5 -5 -5 -5 -5 -5 -5 -5 -6 -6 -6 -6 -5 -6 -6 -5 -5
-3 -3 -4 -4 -4 -4 -5 -5 -5 -5 -5 -6 -6 -6 -6 -6 -6 -6 -6 -6 -6 -6 -6 -6 -6 -6 -6 -6 -6 -6 -6 -6 -6 -6 -6 -6 -6 -6 -6 -6 -6 -6 -6 -6
-3 -4 -4 -4 -5 -5 -5 -5 -5 -5 -6 -6 -6 -6 -6 -6 -6 -7 -7 -7 -6 -7 -7 -7 -7 -6 -6 -6 -6 -6 -6 -6 -6 -6 -6 -6 -6 -6 -6 -6 -6 -6 -6 -6
-4 -4 -4 -5 -5 -5 -5 -5 -5 -6 -6 -6 -6 -6 -6 -7 -7 -7 -7 -7 -7 -7 -7 -7 -7 -7 -7 -7 -7 -6 -6 -6 -6 -6 -6 -6 -6 -6 -6 -6 -6 -6 -6 -6
-4 -4 -5 -5 -5 -6 -6 -6 -6 -6 -6 -6 -7 -7 -7 -7 -7 -7 -7 -7 -7 -7 -7 -7 -7 -7 -7 -7 -7 -7 -7 -7 -7 -7 -6 -6 -7 -7 -7 -7 -7 -7 -7 -6
-5 -5 -5 -5 -5 -6 -6 -6 -6 -6 -6 -6 -7 -7 -7 -7 -7 -7 -7 -7 -8 -8 -7 -7 -7 -7 -7 -7 -7 -7 -7 -7 -7 -7 -7 -7 -7 -7 -7 -7 -7 -7 -7 -7
-5 -5 -5 -6 -6 -6 -6 -6 -7 -7 -7 -7 -7 -7 -7 -7 -7 -8 -8 -8 -8 -8 -8 -7 -7 -7 -8 -7 -7 -7 -7 -7 -7 -7 -7 -7 -7 -7 -7 -7 -7 -7 -7 -7
-5 -5 -5 -6 -6 -6 -6 -7 -7 -7 -7 -7 -7 -7 -8 -8 -8 -8 -8 -8 -8 -8 -8 -8 -8 -8 -8 -8 -7 -7 -7 -7 -7 -7 -7 -7 -7 -7 -7 -7 -7 -7 -7 -7
-5 -6 -6 -6 -6 -6 -6 -7 -7 -7 -7 -7 -7 -7 -8 -8 -8 -8 -8 -8 -8 -8 -8 -8 -8 -8 -8 -8 -8 -8 -8 -7 -7 -7 -7 -7 -7 -7 -7 -7 -7 -7 -7 -7
-6 -6 -6 -6 -6 -7 -7 -7 -7 -7 -7 -7 -7 -8 -8 -8 -8 -8 -8 -8 -8 -8 -8 -8 -8 -8 -8 -8 -8 -8 -8 -8 -8 -7 -7 -7 -7 -7 -7 -7 -7 -7 -7 -7
Wind_Speed
6 6 4 4 5 4 5 6 6 7 7 8 5 4 4 4 4 4 4 4 3 3 2 2 3 3 3 3 3 2 1 1 1 1 1 2 2 2 2 2 2 2 2 2
5 4 4 5 7 6 7 6 6 7 8 6 4 3 3 4 3 3 3 3 3 3 3 3 3 3 3 3 3 2 1 1 1 1 2 2 2 2 2 2 2 2 3 2
4 6 4 6 6 6 4 4 4 7 7 4 3 4 4 4 3 1 2 2 3 3 2 3 3 3 3 2 2 2 1 1 1 2 2 2 2 3 2 2 2 2 2 2
2 4 4 5 1 3 4 5 4 4 4 3 3 3 3 2 1 2 2 3 3 3 3 3 3 3 3 3 2 2 2 1 1 2 2 2 2 2 2 2 2 2 2 2
1 2 7 6 2 2 3 5 4 5 5 4 2 2 4 2 1 1 2 2 2 3 3 3 4 3 3 3 3 3 2 2 1 1 2 2 2 2 1 2 1 1 2 2
2 2 5 5 2 1 2 5 4 4 5 3 1 2 4 2 2 2 2 2 3 2 2 3 3 3 3 3 3 3 2 1 1 1 1 1 1 1 1 1 1 1 2 2
4 5 8 5 2 2 2 6 3 3 4 3 3 5 4 2 2 2 2 3 3 3 3 3 3 3 3 3 3 3 2 2 1 1 1 1 1 1 1 1 1 1 2 1
4 4 8 3 4 5 6 2 2 3 3 3 4 3 3 2 2 2 3 3 3 2 3 3 3 2 3 3 3 2 2 2 2 1 1 1 1 1 1 1 1 1 1 1
8 8 4 4 6 4 3 3 3 4 4 3 3 3 3 2 2 2 2 3 2 2 3 3 3 2 2 3 3 2 2 1 1 1 1 1 1 2 1 1 1 1 1 1
5 8 6 6 6 4 4 4 4 4 4 3 4 3 3 3 3 2 2 2 2 2 3 4 4 3 3 3 2 1 1 1 1 1 1 1 0 1 1 1 1 1 1 1
6 7 5 6 8 7 5 4 3 3 3 4 4 3 3 3 3 3 2 2 2 2 2 4 4 4 4 3 1 1 1 1 0 0 0 1 1 0 1 1 2 2 2 2
8 7 6 6 6 5 5 5 5 4 3 2 3 4 3 3 3 2 2 2 1 2 2 3 3 4 4 3 1 1 1 1 1 0 0 0 0 1 2 1 1 1 1 2
7 4 5 5 4 4 5 5 4 4 4 3 2 2 3 2 2 2 2 2 2 2 2 3 3 4 4 3 2 1 1 1 1 1 1 1 1 1 0 2 2 0 0 1
6 3 4 4 5 4 4 3 2 1 1 2 2 2 2 2 1 2 2 3 2 2 2 2 3 4 4 3 2 2 1 2 2 2 1 1 1 1 1 1 1 1 1 1
7 6 6 4 3 3 2 2 2 1 1 1 1 1 2 2 2 3 3 2 2 2 2 2 3 4 4 2 2 2 2 1 1 1 1 1 1 1 1 1 1 1 1 1
4 3 4 4 5 4 3 3 3 3 3 2 2 2 2 2 2 2 2 2 1 2 3 3 4 4 3 2 2 2 2 2 2 2 2 2 2 2 1 1 1 1 0 0
4 5 5 5 6 5 5 5 5 4 3 3 3 3 2 1 1 2 2 2 2 3 3 3 3 4 3 2 2 2 1 2 2 1 2 2 2 2 2 2 1 1 1 1
8 8 7 7 6 5 5 4 4 4 4 4 3 2 2 2 3 3 3 2 2 3 3 3 3 3 2 2 2 1 1 1 1 2 2 2 2 2 2 2 1 1 0 0
5 6 5 5 5 5 5 4 4 4 3 3 3 3 3 3 3 2 2 2 2 3 4 4 4 3 2 2 2 1 1 1 1 2 2 2 2 1 2 1 1 1 1 0
3 4 4 4 3 4 4 3 3 3 3 3 2 2 2 2 2 2 2 2 3 3 3 4 3 2 2 2 1 1 1 1 2 2 2 2 2 2 1 1 1 1 1 1
4 4 4 4 3 3 4 3 3 3 3 3 3 3 3 3 2 2 1 3 3 3 3 4 2 1 1 1 1 1 1 2 2 2 2 2 2 2 2 2 1 1 1 1
3 4 4 4 4 3 3 3 3 3 2 2 2 2 2 2 2 2 3 3 3 4 3 2 2 2 2 1 0 1 1 2 2 2 2 2 2 2 2 2 1 1 1 1
3 3 3 4 4 3 2 2 3 3 3 3 3 3 3 3 2 2 3 3 2 4 2 2 3 3 2 0 1 1 1 2 2 2 2 2 2 2 2 2 1 1 1 1
3 3 3 3 3 2 2 3 2 2 3 3 3 3 2 2 2 2 2 3 4 4 2 3 4 3 1 1 1 1 1 1 1 1 2 1 1 1 1 1 1 1 1 1
3 3 3 4 4 4 4 2 2 2 2 2 2 2 2 2 3 2 2 2 3 3 2 3 3 2 1 1 1 1 1 1 1 2 2 2 1 1 1 1 1 1 1 1
3 3 3 4 4 3 3 3 2 2 2 2 2 2 2 1 2 1 1 2 2 2 1 1 1 1 0 0 1 1 0 0 0 1 1 1 1 1 1 1 1 1 1 1
2 2 2 2 2 3 3 3 3 3 3 3 2 2 2 2 1 1 1 1 1 1 1 1 0 0 0 0 1 1 1 1 1 1 1 1 1 1 1 1 1 1 0 1
Wind_Direction
266 272 256 253 267 250 221 220 223 253 256 272 292 299 310 321 340 2 16 24 29 27 18 21 15 11 10 8 7 24 86 123 150 130 122 122 126 139 140 140 159 166 160 164
302 299 280 273 272 251 242 239 242 262 273 278 300 328 329 327 343 2 6 11 17 16 15 13 4 354 355 356 357 18 47 91 95 102 106 115 122 121 125 126 129 138 145 152
288 320 341 286 258 226 223 226 214 240 255 286 317 317 314 312 324 348 349 354 0 359 356 351 341 337 337 337 1 23 29 48 73 88 93 105 110 109 119 131 125 126 134 135
302 6 266 255 257 213 226 249 236 250 275 275 270 293 311 310 316 353 356 354 349 351 350 351 351 347 345 356 12 20 18 29 52 92 101 103 107 118 127 125 133 134 131 122
164 279 280 290 264 201 215 273 247 239 264 281 309 351 332 333 12 340 338 337 336 337 339 354 353 351 358 6 7 13 14 14 25 97 119 120 124 132 125 123 116 126 125 126
160 225 253 263 283 287 109 281 257 232 249 266 346 303 285 318 353 343 343 340 337 341 359 1 346 355 12 3 3 357 347 341 12 101 133 145 156 150 132 125 126 120 116 122
203 236 264 259 273 110 164 257 273 233 240 240 232 236 262 296 316 324 328 327 337 350 360 347 342 3 12 359 344 332 344 360 29 71 120 135 129 135 133 123 115 120 120 113
181 217 257 222 144 189 224 259 242 244 243 233 242 259 269 271 281 306 317 326 335 347 347 347 349 1 358 345 330 343 5 12 14 35 90 112 113 103 114 129 131 136 124 111
199 219 253 200 214 235 211 225 242 242 250 235 242 248 257 264 270 288 300 314 328 335 340 345 347 355 339 327 334 354 17 15 15 22 50 101 139 152 153 157 166 170 163 168
244 256 253 247 251 253 231 229 239 234 237 222 227 239 256 270 276 283 299 306 316 330 331 333 337 341 325 321 335 357 6 12 33 57 47 34 42 167 175 185 195 194 192 193
249 267 287 265 242 240 239 240 242 244 233 218 215 236 242 253 266 274 285 296 304 305 309 314 326 330 328 326 333 346 339 337 340 37 99 47 7 286 227 229 218 214 212 205
227 223 209 242 235 221 224 239 236 229 240 238 213 227 233 239 251 256 266 273 281 294 301 309 318 318 318 319 310 307 310 296 272 240 180 162 133 28 8 311 272 259 240 230
228 223 218 243 234 220 220 232 232 221 211 218 228 220 217 227 241 238 261 265 261 273 287 300 308 309 309 311 304 282 262 258 244 225 205 198 177 153 19 3 1 326 275 269
229 216 238 227 226 225 217 220 208 195 205 209 221 221 218 225 235 249 261 266 270 278 288 292 298 301 304 303 295 281 261 249 240 225 211 205 202 196 199 210 292 321 320 300
235 221 223 228 213 210 201 174 160 214 221 239 208 207 210 221 242 260 270 276 283 283 284 290 294 296 302 295 281 266 255 238 225 207 199 196 193 188 186 189 205 261 320 349
234 230 216 212 216 210 190 187 199 220 221 222 231 234 232 232 248 267 271 258 256 276 282 285 284 291 298 289 277 270 255 242 232 194 183 183 181 177 179 182 188 201 240 318
197 217 213 219 220 216 211 211 212 219 220 223 232 235 237 241 266 282 286 285 274 278 279 273 282 294 297 289 273 261 251 235 220 192 183 184 183 183 184 185 187 196 229 258
216 219 214 206 206 209 216 214 213 216 219 222 220 215 217 223 240 264 282 300 310 309 298 287 288 299 296 287 276 251 231 216 182 174 179 182 178 178 178 180 184 187 194 278
212 213 212 208 201 195 204 214 219 219 220 208 201 218 231 235 242 259 280 293 289 293 300 299 304 317 300 282 289 235 209 181 165 162 171 181 170 161 168 176 183 181 168 150
211 206 201 199 190 191 203 214 213 213 215 204 203 217 242 251 249 254 262 264 263 271 285 295 306 304 292 280 278 200 180 170 165 163 165 168 165 170 178 182 180 174 171 179
210 201 190 190 198 205 205 204 202 213 218 203 203 218 237 255 249 235 244 274 287 291 296 299 311 297 286 275 252 159 164 162 165 169 170 166 165 173 177 171 174 179 181 200
206 194 194 194 196 212 215 203 201 207 212 214 215 217 224 245 249 250 247 248 275 292 305 295 294 290 291 283 156 163 159 161 164 168 172 173 176 181 178 175 177 183 194 210
203 196 197 201 200 205 207 202 201 202 208 213 217 223 228 236 232 235 269 270 277 288 300 279 289 295 293 321 137 155 158 162 165 172 176 176 177 180 182 183 187 190 206 217
198 197 199 189 164 171 209 227 218 215 217 224 228 231 228 237 257 245 253 274 283 288 291 285 294 299 313 84 124 143 152 159 162 163 163 161 161 165 170 176 187 198 201 210
193 195 191 179 187 208 217 219 223 219 217 233 249 247 235 222 230 256 267 269 279 293 302 291 291 304 23 79 129 161 180 181 172 161 163 163 161 161 163 163 173 181 192 205
191 202 209 210 211 213 207 203 212 216 211 234 259 253 249 244 235 239 253 268 270 285 298 294 303 317 3 163 158 160 164 175 136 125 137 144 148 152 156 161 172 181 199 230
189 195 204 228 229 213 206 204 209 218 214 217 241 249 245 237 231 238 249 266 276 282 288 285 276 241 172 153 144 140 128 117 123 135 139 139 145 154 159 168 176 177 186 219
Height
1506 1502 1502 1500 1499 1497 1497 1495 1495 1487 1484 1479 1478 1478 1477 1474 1472 1470 1469 1468 1468 1468 1468 1468 1468 1468 1468 1469 1469 1469 1470 1470 1471 1472 1473 1473 1474 1475 1477 1478 1480 1481 1482 1483
1507 1500 1500 1499 1495 1494 1493 1491 1490 1486 1483 1479 1478 1477 1476 1474 1472 1470 1469 1469 1468 1468 1468 1467 1467 1467 1467 1467 1467 1467 1467 1468 1469 1469 1470 1471 1471 1473 1474 1475 1477 1478 1479 1480
1510 1506 1500 1498 1493 1491 1490 1488 1487 1485 1482 1479 1478 1477 1476 1474 1472 1471 1470 1469 1469 1468 1467 1466 1466 1465 1465 1465 1465 1465 1465 1465 1466 1466 1467 1468 1469 1470 1471 1472 1474 1475 1476 1477
1515 1511 1503 1492 1489 1488 1487 1485 1484 1481 1479 1478 1478 1476 1475 1474 1472 1471 1470 1469 1468 1467 1466 1466 1465 1464 1463 1463 1463 1462 1462 1463 1463 1463 1464 1465 1466 1468 1469 1470 1471 1472 1473 1474
1517 1515 1503 1491 1487 1488 1488 1484 1480 1480 1478 1477 1477 1475 1473 1472 1472 1471 1470 1469 1468 1467 1466 1465 1464 1463 1462 1461 1461 1461 1461 1461 1461 1462 1462 1463 1464 1465 1466 1467 1468 1469 1470 1471
1516 1511 1501 1487 1486 1484 1487 1485 1478 1477 1476 1476 1476 1477 1474 1472 1471 1470 1469 1468 1467 1465 1464 1464 1463 1462 1461 1460 1459 1459 1459 1460 1460 1460 1461 1462 1462 1463 1464 1465 1466 1467 1468 1469
1515 1512 1498 1486 1484 1485 1489 1482 1476 1475 1475 1475 1474 1474 1472 1470 1469 1468 1467 1466 1465 1464 1463 1462 1462 1461 1459 1459 1458 1458 1458 1458 1458 1459 1459 1460 1461 1462 1462 1463 1464 1465 1466 1466
1511 1510 1495 1482 1483 1484 1479 1475 1474 1473 1473 1473 1472 1470 1469 1468 1467 1466 1465 1464 1464 1462 1461 1461 1460 1459 1458 1457 1457 1457 1456 1456 1457 1457 1458 1458 1459 1460 1461 1461 1462 1463 1463 1464
1495 1488 1480 1478 1476 1475 1474 1474 1472 1472 1471 1470 1469 1468 1467 1466 1465 1464 1464 1463 1462 1461 1460 1459 1459 1458 1457 1456 1455 1455 1454 1455 1455 1455 1456 1456 1457 1458 1459 1459 1460 1460 1461 1462
1489 1479 1476 1475 1473 1472 1472 1471 1470 1470 1469 1468 1467 1466 1465 1464 1463 1462 1461 1461 1460 1459 1458 1457 1457 1456 1455 1455 1454 1453 1453 1453 1453 1453 1454 1454 1455 1456 1456 1457 1458 1458 1459 1460
1483 1476 1473 1470 1469 1469 1469 1468 1467 1467 1466 1465 1464 1463 1462 1461 1460 1460 1459 1459 1458 1457 1456 1456 1455 1454 1454 1453 1452 1452 1451 1451 1452 1452 1452 1452 1453 1454 1454 1455 1456 1457 1457 1458
1473 1468 1468 1465 1465 1466 1465 1464 1464 1463 1462 1462 1462 1460 1459 1458 1458 1458 1457 1457 1456 1456 1455 1454 1453 1452 1452 1451 1451 1450 1450 1450 1450 1450 1450 1451 1451 1452 1452 1453 1454 1455 1456 1456
1464 1463 1463 1462 1462 1463 1462 1461 1461 1460 1460 1459 1459 1458 1457 1456 1456 1455 1455 1455 1454 1454 1453 1452 1451 1450 1450 1449 1449 1449 1448 1448 1448 1448 1448 1448 1449 1449 1449 1451 1452 1452 1453 1454
1460 1461 1459 1458 1459 1459 1459 1458 1458 1458 1457 1457 1456 1455 1455 1454 1453 1453 1453 1453 1452 1451 1451 1450 1449 1448 1448 1447 1447 1447 1446 1446 1446 1446 1446 1446 1447 1447 1448 1448 1449 1449 1451 1451
1455 1456 1456 1455 1455 1455 1455 1455 1455 1454 1454 1454 1453 1453 1452 1452 1451 1451 1451 1451 1450 1449 1448 1447 1447 1446 1446 1445 1445 1444 1444 1444 1444 1444 1444 1444 1445 1445 1446 1446 1447 1447 1448 1449
1451 1451 1452 1452 1451 1452 1452 1452 1452 1452 1452 1451 1451 1450 1450 1450 1449 1449 1449 1448 1448 1447 1446 1445 1445 1444 1444 1443 1443 1442 1442 1442 1442 1442 1442 1442 1443 1443 1444 1444 1445 1445 1446 1447
1447 1447 1447 1448 1448 1448 1449 1449 1449 1449 1449 1448 1448 1448 1448 1447 1447 1447 1446 1446 1445 1445 1444 1443 1442 1442 1441 1441 1440 1440 1440 1439 1439 1439 1440 1440 1441 1441 1442 1442 1443 1444 1444 1445
1443 1444 1444 1444 1445 1445 1445 1446 1446 1446 1446 1446 1446 1445 1445 1445 1444 1444 1444 1443 1443 1442 1441 1441 1440 1439 1439 1438 1438 1438 1437 1437 1437 1437 1438 1438 1439 1440 1440 1441 1442 1442 1443 1444
1440 1441 1441 1441 1442 1442 1443 1443 1443 1443 1443 1443 1443 1443 1443 1443 1442 1442 1442 1441 1440 1439 1439 1438 1438 1437 1436 1436 1436 1435 1435 1435 1435 1435 1436 1437 1438 1438 1439 1440 1440 1441 1441 1442
1437 1438 1438 1439 1439 1440 1440 1440 1441 1441 1441 1441 1441 1441 1440 1440 1440 1440 1439 1438 1438 1437 1436 1436 1435 1434 1434 1434 1434 1433 1433 1433 1433 1434 1435 1435 1436 1437 1438 1438 1439 1440 1440 1441
1434 1435 1436 1436 1437 1437 1438 1438 1438 1438 1438 1438 1438 1438 1438 1438 1438 1437 1436 1435 1435 1435 1434 1433 1433 1432 1432 1432 1432 1432 1432 1432 1432 1433 1433 1434 1435 1436 1436 1437 1438 1438 1439 1439
1432 1433 1433 1434 1434 1434 1435 1436 1436 1436 1436 1436 1436 1436 1436 1435 1435 1435 1434 1434 1433 1432 1432 1431 1431 1431 1430 1430 1430 1430 1430 1430 1431 1431 1432 1433 1434 1434 1435 1436 1436 1437 1437 1438
1430 1431 1431 1432 1432 1432 1433 1433 1433 1434 1434 1434 1434 1434 1433 1433 1433 1432 1431 1431 1431 1430 1430 1429 1429 1429 1429 1429 1429 1429 1429 1429 1430 1430 1431 1432 1433 1433 1434 1434 1435 1436 1436 1437
1428 1429 1429 1430 1430 1430 1430 1431 1431 1431 1431 1431 1432 1431 1431 1430 1430 1430 1430 1429 1429 1428 1428 1428 1428 1428 1428 1427 1427 1428 1428 1428 1429 1429 1430 1431 1431 1432 1433 1433 1434 1434 1435 1435
1426 1427 1427 1427 1428 1428 1428 1429 1429 1429 1429 1429 1429 1429 1429 1428 1428 1428 1428 1427 1427 1426 1426 1426 1426 1426 1426 1426 1426 1426 1427 1427 1428 1428 1429 1429 1430 1431 1431 1432 1433 1433 1434 1434
1424 1425 1425 1425 1426 1426 1426 1426 1426 1426 1426 1426 1426 1426 1426 1426 1426 1426 1425 1425 1425 1424 1424 1424 1425 1425 1425 1425 1425 1425 1426 1426 1427 1427 1428 1428 1429 1430 1430 1431 1432 1432 1433 1433
1421 1422 1422 1423 1423 1423 1423 1423 1423 1423 1423 1423 1423 1423 1423 1423 1423 1423 1423 1423 1423 1423 1423 1423 1423 1423 1424 1424 1424 1425 1425 1425 1426 1426 1427 1428 1428 1429 1430 1430 1431 1431 1431 1432